Regional Weather Roundup
Issued by NWS

Home | Current Version | Previous Version | Graphics & Text | Print | Product List | Glossary On
Versions: 1 2 3 4 5 6 7 8 9 10 11 12 13 14 15 16 17 18 19 20 21 22 23 24 25 26 27 28 29 30 31 32 33 34 35 36 37 38 39 40 41 42 43 44 45 46 47 48 49 50
000
ASUS45 KTFX 182204
RWRMT
MONTANA HOURLY WEATHER ROUNDUP
NATIONAL WEATHER SERVICE GREAT FALLS MT
404 PM MDT FRI APR 18 2014

NOTE: "FAIR" INDICATES FEW OR NO CLOUDS BELOW 12000 FEET WITH NO
SIGNIFICANT WEATHER AND/OR OBSTRUCTIONS TO VISIBILITY.

* THESE STATIONS ARE NOT UNDER NWS QUALITY CONTROL. THEY DO NOT
   REPORT WEATHER SUCH AS PRECIPITATION OR FOG.

MTZ001>007-043-182300-
WEST OF THE DIVIDE
CITY           SKY/WX    TMP DP  RH WIND       PRES   REMARKS
KALISPELL      CLOUDY    48  21  34 SW22G33   29.83R
MISSOULA       CLOUDY    48  19  32 W23G35    29.92S
BUTTE          PTSUNNY   43  10  26 W23G35    29.88R
MULLAN PASS    FRZ RAIN  28  25  89 W12G23    29.90R WCI  18
* ESSEX        N/A       41  20  43 NW7        N/A
* LINCOLN      N/A       41  15  35 SW9G23     N/A
* LOOKOUT PASS N/A       37  26  64 SE16G23    N/A   WCI  28
* POLSON       N/A       51  24  35 W4G12      N/A
* SEELEY LAKE  N/A       46  15  29 W10G21     N/A
* THOMP F APT  PTCLDY    50  26  39 S6G19      N/A
* YAAK HILL    N/A       46  26  46 SW2G11     N/A
$$

MTZ008-052>055-182300-
SOUTHWEST MONTANA
CITY           SKY/WX    TMP DP  RH WIND       PRES   REMARKS
BOZEMAN        PTSUNNY   50  30  46 NW28G38   29.78R
DILLON         PTCLDY    54  19  25 W26G40    29.82R
W YELLOWSTONE  N/A       39  36  89 SW6G16     N/A   WCI  35
* THREE FORKS  PTCLDY    55  30  39 W21G30     N/A
* BOULDER HILL N/A       40  14  35 S20G29     N/A   WCI  30
* RAYNOLDS PAS N/A       41  21  45 SE20G30    N/A
* WHITEHALL    N/A       51  26  38 NW23G41    N/A
* WISE RIVER   N/A       41  23  49 W24G42     N/A
$$

MTZ009>010-012-014-046-048-049-054-182300-
EAST SLOPES AND CENTRAL MONTANA
CITY           SKY/WX    TMP DP  RH WIND       PRES   REMARKS
CUT BANK       PTSUNNY   46  18  33 W37G47    29.67R
GREAT FALLS    PTSUNNY   54  16  22 W35G44    29.71S
HELENA         HAZE      46  18  33 NW23G41   29.83R
MALMSTROM AFB  PTSUNNY   52   9  17 SW21G39   29.70R
* CONRAD       PTCLDY    52  19  27 SW20G38    N/A
* DEARBORN     N/A       49  19  30 SW20G27    N/A
* EAST GLACIER N/A       39  18  43 W40G51     N/A   WCI  26
* MONARCH      N/A       38  18  44 SW21G30    N/A   WCI  28
* PENDROY      N/A       43  22  43 W34G47     N/A
* ROGERS PASS  N/A       36  16  44 SE16G29    N/A   WCI  26
* SAINT MARY   N/A       37  28  70 SW15G34    N/A   WCI  28
* SWEET GRASS  N/A       47  22  37 W29G41     N/A
$$

MTZ011-013-016-021-035-040-045-047-050-051-182300-
NORTH CENTRAL MONTANA
CITY           SKY/WX    TMP DP  RH WIND       PRES   REMARKS
HAVRE          CLOUDY    55  16  21 W26G46    29.64R
LEWISTOWN      LGT RAIN  37  32  82 NW16G32   29.76R WCI  28
* CHESTER      N/A       52  15  23 W25G44     N/A
* DENTON       N/A       47  24  40 W32G42     N/A
* GEYSER       N/A       46  25  44 SW27G37    N/A
* JUDITH GAP   N/A       46  41  83 SW14G22    N/A
* LOMA         N/A       54  16  22 SW30G40    N/A
$$

MTZ017>020-022>027-061-062-182300-
NORTHEAST MONTANA
CITY           SKY/WX    TMP DP  RH WIND       PRES   REMARKS
GLASGOW        CLOUDY    48  43  83 SE8       29.65S
GLENDIVE       CLOUDY    63  36  37 NW24G32   29.63R
JORDAN         CLOUDY    52  46  80 S9        29.65F
SIDNEY         CLOUDY    61  37  41 SE16      29.64F
WOLF POINT     RAIN      48  45  89 W9        29.69R VSB 3
* BEAVER HILL  N/A       63  37  38 E19G25     N/A
* CIRCLE       N/A       50  46  86 SW7        N/A
* LINDSAY DVD  N/A       56  37  49 NW20G28    N/A
* NAVAJO       N/A       44  36  74 S6G11      N/A
* SACO         N/A       49  42  77 E8         N/A
$$

MTZ028>042-056>058-182300-
SOUTHCENTRAL AND SOUTHEAST MONTANA
CITY           SKY/WX    TMP DP  RH WIND       PRES   REMARKS
BAKER          PTSUNNY   73  37  27 W17G26    29.59F
BILLINGS       PTSUNNY   61  37  41 VRB3      29.68F
LIVINGSTON     CLOUDY    52  34  50 SW24G33   29.70R
MILES CITY     CLOUDY    57  37  47 NW29G35   29.69R
* LAUREL APT   PTCLDY    61  36  39 S6         N/A
* ROUNDUP APT  PTCLDY    61  34  36 N/A        N/A
* HYSHAM       N/A       54  37  53 W4         N/A
* LAME DEER    N/A       54  35  49 NW14G23    N/A
* REED POINT   N/A       63  29  28 W26G34     N/A
* ROSCOE HILL  N/A       58  20  23 W7G16      N/A
$$

REGIONAL REPORTS...DAKOTAS
CITY           SKY/WX    TMP DP  RH WIND       PRES   REMARKS
WILLISTON      CLOUDY    57  34  42 S16G23    29.68R
DICKINSON      CLOUDY    63  36  37 SE25G36   29.62F
CROSBY         PTCLDY    50  30  46 SE15G26   29.74R
TIOGA          PTCLDY    52  32  47 SE28G36   29.70F
WATFORD CITY   SUNNY     54  34  47 SE20G31   29.65S
BISMARCK       CLOUDY    63  37  38 SE30G38   29.73F
GRAND FORKS    CLOUDY    50  28  43 SE26G36   30.06F
FARGO          PTCLDY    52  28  40 SE26G37   30.06F
RAPID CITY     CLOUDY    73  37  27 S24G32    29.64F
$$

REGIONAL REPORTS...WYOMING/IDAHO/WASHINGTON
CITY           SKY/WX    TMP DP  RH WIND       PRES   REMARKS
GILLETTE       CLOUDY    70  37  30 NW28G36   29.66S
SHERIDAN       PTSUNNY   64  41  43 W8        29.69F
CODY           PTSUNNY   57  34  42 W18G29    29.74S
YELLOWSTONE LA CLOUDY    39  27  62 W14G22    29.93S WCI  31
SALMON         PTCLDY    54  27  35 NW18G33   29.85S
MULLAN PASS    FRZ RAIN  28  25  89 W12G23    29.90S WCI  18
SPOKANE        PTCLDY    52  25  35 SW18      29.96R
$$

REGIONAL REPORTS...SASKATCHEWAN
CITY           SKY/WX    TMP DP  RH WIND       PRES   REMARKS
REGINA         LGT SNOW  36  32  85 SE24G31   29.74F VSB 2 1/2 WCI  24

$$




USA.gov is the U.S. government's official web portal to all federal, state and local government web resources and services.